Station NBLP1 - 8548989 - Newbold, PA Image indicating link to RSS feed of recent meteorological observations for station NBLP1


Conditions at NBLP1 as of
(10:30 pm EDT on 05/29/2024)
0230 GMT on 05/30/2024:
     

Click on the graph icon in the table below to see a time series plot of the last five days of that observation.

5-day plot - Wind Direction Wind Direction (WDIR): W ( 260 deg true )
5-day plot - Wind Speed Wind Speed (WSPD): 2.9 kts
5-day plot - Wind Gust Wind Gust (GST): 5.1 kts
5-day plot - Atmospheric Pressure Atmospheric Pressure (PRES):29.96 in
5-day plot - Air Temperature Air Temperature (ATMP): 62.6 °F
5-day plot - Water Temperature Water Temperature (WTMP): 75.7 °F
5-day plot - Wind Speed at 10 Meters Wind Speed at 10 meters (WSPD10M): 3.9 kts
5-day plot - Wind Speed at 20 Meters Wind Speed at 20 meters (WSPD20M): 3.9 kts
5-day plot -  Wind Speed, Wind Gust and Atmospheric Pressure Combined plot of Wind Speed, Gust, and Air Pressure
NOS Water Level Observation Network Water Level
Previous observations
TIME
(EDT)
5-day plot - Wind Direction
WDIR
 
5-day plot - Wind Speed
WSPD
kts
5-day plot - Wind Gust
GST
kts
5-day plot - Wave Height
WVHT
ft
5-day plot - Dominant Wave Period
DPD
sec
5-day plot - Average Wave Period
APD
sec
5-day plot - Mean Wave Direction
MWD
 
5-day plot - Atmospheric Pressure
PRES
in
5-day plot - Pressure Tendency
PTDY
in
5-day plot - Air Temperature
ATMP
°F
5-day plot - Water Temperature
WTMP
°F
5-day plot - Dew Point
DEWP
°F
5-day plot - Salinity
SAL
psu
5-day plot - Visibility
VIS
nmi
5-day plot - Tide (above MLLW)
TIDE
ft
2024-05-29 10:24 pm SW 1.9 4.1----29.96- 62.6 75.7----
2024-05-29 10:18 pm SW 4.1 5.1----29.96- 62.6 75.7----
2024-05-29 10:12 pm W 2.9 5.1----29.96- 62.4 75.7----
2024-05-29 10:06 pm SW 2.9 4.1----29.96- 62.4 75.7----
2024-05-29 10:00 pm SW 1.0 1.9----29.95+0.06 62.1 75.7----
2024-05-29 09:54 pm- 0.0 1.9----29.95- 62.4 75.7----
2024-05-29 09:48 pm SW 1.9 2.9----29.96- 62.6 75.7----
2024-05-29 09:42 pm SW 1.9 4.1----29.96- 62.2 75.7----
2024-05-29 09:36 pmSSW 2.9 5.1----29.96- 62.2 75.7----
2024-05-29 09:30 pmSSW 5.1 6.0----29.96- 62.4 75.7----
2024-05-29 09:24 pm W 2.9 6.0----29.95- 62.6 75.7----
2024-05-29 09:18 pmWSW 4.1 5.1----29.95- 63.0 75.7----
2024-05-29 09:12 pm W 2.9 4.1----29.94- 62.4 75.7----
2024-05-29 09:06 pmWNW 2.9 5.1----29.94- 62.8 75.7----
2024-05-29 09:00 pm W 5.1 6.0----29.94+0.06 62.6 75.7----
2024-05-29 08:54 pmNNW 2.9 4.1----29.94- 62.4 75.7----
2024-05-29 08:48 pmNNE 4.1 7.0----29.93- 62.6 75.7----
2024-05-29 08:42 pm N 1.9 5.1----29.93- 62.6 75.7----
2024-05-29 08:36 pmNNE 2.9 5.1----29.93- 62.8 75.9----
2024-05-29 08:30 pm N 2.9 6.0----29.94- 62.8 75.9----
2024-05-29 08:24 pm N 4.1 6.0----29.94- 63.1 75.9----
2024-05-29 08:18 pm N 2.9 5.1----29.94- 63.3 75.9----
2024-05-29 08:12 pm N 2.9 8.9----29.94- 63.5 75.9----
2024-05-29 08:06 pmNNW 5.1 8.0----29.94- 63.5 75.9----
2024-05-29 08:00 pm NW 7.0 11.1----29.94+0.06 63.7 75.9----
2024-05-29 07:54 pm NW 7.0 9.9----29.94- 63.9 75.9----
2024-05-29 07:48 pmWNW 6.0 12.0----29.95-- 75.9----
2024-05-29 07:42 pm NW 7.0 12.0----29.95-- 75.9----
2024-05-29 07:36 pm NW 5.1 8.9----29.94-- 75.9----
2024-05-29 07:30 pm NW 6.0 8.9----29.93- 64.8 75.9----
2024-05-29 07:24 pmNNW 7.0 12.0----29.92- 64.9 75.9----
2024-05-29 07:18 pm NW 12.0 15.9----29.91- 65.3 75.9----
2024-05-29 07:12 pm N 5.1 8.0----29.90- 66.0 75.9----
2024-05-29 07:06 pmNNW 6.0 18.1----29.89- 66.0 75.9----
2024-05-29 07:00 pm NW 15.0 20.0----29.89+0.00 67.1 75.9----
2024-05-29 06:54 pmSSW 1.9 6.0----29.89- 69.4 75.9----
2024-05-29 06:48 pm S 1.0 2.9----29.88- 72.1 75.9----
2024-05-29 06:42 pmSSE 1.9 2.9----29.88- 73.0 75.9----
2024-05-29 06:36 pmSSE 1.0 1.9----29.87- 73.8 75.9----
2024-05-29 06:30 pmSSE 1.0 1.9----29.87- 74.1 75.9----
2024-05-29 06:24 pmSSE 1.9 2.9----29.87- 74.5 75.9----
2024-05-29 06:18 pmSSE 1.9 2.9----29.88- 74.5 75.9----
2024-05-29 06:12 pmSSE 1.9 4.1----29.88- 74.8 75.9----
2024-05-29 06:06 pmSSE 1.9 2.9----29.88- 74.8 75.9----
2024-05-29 06:00 pmSSE 2.9 4.1----29.88-0.03 74.8 75.9----
2024-05-29 05:54 pmSSE 1.9 4.1----29.88- 75.0 75.9----
2024-05-29 05:48 pmSSE 2.9 4.1----29.88- 75.2 75.9----
2024-05-29 05:42 pmSSE 1.9 4.1----29.89- 75.0 75.9----
2024-05-29 05:36 pmSSE 2.9 4.1----29.88- 75.0 75.9----
2024-05-29 05:30 pmSSE 2.9 8.0----29.89- 75.4 75.7----
2024-05-29 05:24 pmSSE 5.1 6.0----29.89- 75.7 75.7----
2024-05-29 05:18 pm SW 1.0 1.0----29.89- 76.1 75.7----
2024-05-29 05:12 pm- 0.0 2.9----29.89- 77.2 75.6----
2024-05-29 05:06 pm SW 1.9 5.1----29.89- 75.9 75.6----
2024-05-29 05:00 pmWSW 5.1 6.0----29.89-0.05 76.1 75.6----
2024-05-29 04:54 pm W 2.9 5.1----29.89- 76.1 75.7----
2024-05-29 04:48 pm W 4.1 5.1----29.89-- 75.7----
2024-05-29 04:42 pmWNW 2.9 5.1----29.89-- 75.7----
2024-05-29 04:36 pm- 0.0 2.9----29.89-- 75.9----
2024-05-29 04:30 pm- 0.0 1.0----29.89- 78.3 75.9----
2024-05-29 04:24 pm- 0.0 2.9----29.90- 76.5 75.9----
2024-05-29 04:18 pmWSW 1.9 5.1----29.90- 76.8 75.9----
2024-05-29 04:12 pmWSW 2.9 4.1----29.90- 77.2 75.9----
2024-05-29 04:06 pmWSW 1.0 2.9----29.90- 77.4 76.1----
2024-05-29 04:00 pmWSW 2.9 5.1----29.90-0.06 75.7 76.1----
2024-05-29 03:54 pmWSW 2.9 6.0----29.90- 75.0 76.1----
2024-05-29 03:48 pmWSW 4.1 5.1----29.90- 75.6 76.1----
2024-05-29 03:42 pm W 4.1 6.0----29.90- 75.6 76.1----
2024-05-29 03:36 pm- 0.0 2.9----29.90- 75.9 76.1----
2024-05-29 03:30 pmWNW 2.9 5.1----29.90- 76.8 76.1----
2024-05-29 03:24 pmWNW 4.1 5.1----29.91- 75.6 76.1----
2024-05-29 03:18 pmWNW 1.9 2.9----29.91- 76.5 76.1----
2024-05-29 03:12 pmWNW 1.9 2.9----29.91- 76.1 76.1----
2024-05-29 03:06 pm- 0.0 1.0----29.91- 75.9 76.1----
2024-05-29 03:00 pm NW 1.9 4.1----29.91- 75.7 75.9----
2024-05-29 02:54 pmWNW 5.1 7.0----29.92- 74.7 75.9----
2024-05-29 02:48 pm NW 5.1 8.0----29.92- 75.4 75.9----
2024-05-29 02:42 pm NW 5.1 7.0----29.92- 75.0 75.9----
2024-05-29 02:36 pm W 4.1 5.1----29.92- 74.1 75.9----
2024-05-29 02:30 pm W 1.9 7.0----29.93- 74.5 75.9----
2024-05-29 02:24 pmWSW 6.0 8.9----29.93- 73.8 75.9----
2024-05-29 02:18 pm W 6.0 8.0----29.93- 73.8 75.9----
2024-05-29 02:12 pm S 6.0 7.0----29.93- 72.9 75.9----
2024-05-29 02:06 pmWSW 2.9 8.9----29.93- 73.9 75.9----
2024-05-29 02:00 pm NW 2.9 7.0----29.93-0.04 74.8 75.9----
2024-05-29 01:54 pmWNW 1.0 8.0----29.94- 74.3 75.9----
2024-05-29 01:48 pmWNW 1.0 9.9----29.94- 73.0 75.9----
2024-05-29 01:42 pmWNW 8.9 11.1----29.94- 73.2 75.9----
2024-05-29 01:36 pm NW 4.1 7.0----29.94- 74.5 75.7----
2024-05-29 01:30 pmWNW 4.1 6.0------------
2024-05-29 01:24 pmWNW 5.1 8.9------------
2024-05-29 01:18 pmWNW 5.1 7.0----29.95-- 75.7----
2024-05-29 01:12 pm W 4.1 7.0----29.96-- 75.7----
2024-05-29 01:06 pmWNW 4.1 7.0----29.96-- 75.7----
2024-05-29 01:00 pm SW 4.1 5.1----29.96+0.01 71.8 75.7----
2024-05-29 12:54 pmWSW 1.0 1.9----29.96- 72.9 75.7----
2024-05-29 12:48 pm SW 1.9 5.1------- 75.7----
2024-05-29 12:42 pmWSW 6.0 9.9------- 75.7----
2024-05-29 12:36 pm SW 4.1 7.0------- 75.6----
2024-05-29 12:30 pm SW 4.1 6.0------ 70.7-----
2024-05-29 12:24 pmWSW 5.1 7.0------ 70.9-----
2024-05-29 12:18 pmWSW 4.1 7.0------------
2024-05-29 12:12 pmWSW 6.0 7.0------------
2024-05-29 12:06 pm SW 5.1 8.0------------
2024-05-29 12:00 pm SW 5.1 7.0------ 70.3-----
2024-05-29 11:54 am SW 5.1 7.0------ 70.0-----
2024-05-29 11:48 am W 6.0 8.0----29.98-- 75.6----
2024-05-29 11:42 amWSW 6.0 7.0----29.98-- 75.4----
2024-05-29 11:36 am SW 5.1 8.0----29.98-- 75.4----
2024-05-29 11:30 am- 0.0 1.9------- 75.4----
2024-05-29 11:24 am- 0.0 1.0------- 75.4----
2024-05-29 11:18 am- 0.0 1.9----29.98- 70.3 75.4----
2024-05-29 11:12 am W 1.9 4.1----29.98- 69.6 75.4----
2024-05-29 11:06 am W 2.9 5.1----29.98- 69.6 75.4----
2024-05-29 11:00 am- 0.0 4.1----29.98+0.03 70.2 75.4----
2024-05-29 10:54 am NW 1.9 5.1----29.97- 70.5 75.4----
2024-05-29 10:48 am NW 1.0 6.0----29.97-- 75.4----
2024-05-29 10:42 am N 1.9 6.0----29.97-- 75.4----
2024-05-29 10:36 amENE 2.9 6.0----29.96-- 75.4----
2024-05-29 10:30 am N 1.9 4.1----29.96- 70.0 75.4----
2024-05-29 10:24 amWNW 2.9 7.0----29.96- 70.3 75.4----
2024-05-29 10:18 am NW 5.1 8.0----29.96- 69.3 75.4----
2024-05-29 10:12 am N 1.9 2.9----29.95- 71.6 75.4----
2024-05-29 10:06 am- 0.0 6.0----29.95- 70.5 75.4----
2024-05-29 10:00 am N 4.1 8.9----29.95+0.01 70.3 75.4----
2024-05-29 09:54 amNNE 4.1 7.0----29.94- 70.5 75.4----
2024-05-29 09:48 am N 2.9 8.0----29.94- 69.6 75.4----
2024-05-29 09:42 amNNW 2.9 8.9----29.94- 69.8 75.4----
2024-05-29 09:36 amNNE 5.1 8.9----29.93- 69.4 75.4----
2024-05-29 09:30 am NW 6.0 9.9----29.93- 69.3 75.4----
2024-05-29 09:24 am N 4.1 7.0----29.93- 69.1 75.4----
2024-05-29 09:18 amNNW 4.1 8.0----29.93- 68.2 75.4----
2024-05-29 09:12 am N 2.9 8.0----29.93- 68.4 75.4----
2024-05-29 09:06 amNNE 7.0 9.9----29.93- 67.5 75.4----
2024-05-29 09:00 am N 5.1 8.0----29.94+0.03 68.4 75.4----
2024-05-29 08:54 am N 4.1 8.0----29.94- 68.2 75.4----
2024-05-29 08:48 amNNW 2.9 6.0----29.94- 68.2 75.4----
2024-05-29 08:42 am N 4.1 6.0----29.94- 67.8 75.4----
2024-05-29 08:36 amWNW 5.1 8.0----29.94- 66.4 75.4----
2024-05-29 08:30 amNNW 4.1 8.0----29.94- 66.6 75.4----
2024-05-29 08:24 amWNW 4.1 6.0----29.94- 66.0 75.4----
2024-05-29 08:18 am NW 4.1 7.0----29.94- 66.0 75.4----
2024-05-29 08:12 am NW 6.0 8.0----29.94- 65.5 75.4----
2024-05-29 08:06 am NW 5.1 8.0----29.95- 65.3 75.4----
2024-05-29 08:00 amWNW 5.1 7.0----29.95+0.04 64.9 75.4----
2024-05-29 07:54 amWNW 6.0 7.0----29.95- 64.2 75.4----
2024-05-29 07:48 am NW 6.0 8.0----29.95-- 75.4----
2024-05-29 07:42 amWNW 7.0 8.0----29.94-- 75.4----
2024-05-29 07:36 amWNW 6.0 7.0----29.94-- 75.4----
2024-05-29 07:30 amWNW 5.1 7.0----29.94- 63.1 75.4----
2024-05-29 07:24 amWNW 5.1 7.0----29.94- 63.3 75.4----
2024-05-29 07:18 amWNW 4.1 6.0----29.94- 63.1 75.4----
2024-05-29 07:12 amWNW 5.1 6.0----29.94- 63.0 75.4----
2024-05-29 07:06 am W 5.1 6.0----29.93- 62.8 75.4----
2024-05-29 07:00 amWNW 5.1 6.0----29.93+0.04 62.8 75.4----
2024-05-29 06:54 amWNW 4.1 6.0----29.93- 62.8 75.4----
2024-05-29 06:48 amWNW 4.1 6.0----29.93- 62.6 75.4----
2024-05-29 06:42 amWNW 5.1 7.0----29.93- 62.6 75.4----
2024-05-29 06:36 amWNW 4.1 7.0----29.93- 62.2 75.4----
2024-05-29 06:30 amWNW 4.1 6.0----29.93- 62.1 75.4----
2024-05-29 06:24 am W 5.1 6.0----29.93- 62.1 75.4----
2024-05-29 06:18 am W 4.1 5.1----29.92- 62.1 75.4----
2024-05-29 06:12 amWNW 4.1 5.1----29.91- 62.1 75.4----
2024-05-29 06:06 am W 2.9 4.1----29.91- 62.1 75.4----
2024-05-29 06:00 am W 4.1 6.0----29.91+0.02 62.1 75.4----
2024-05-29 05:54 amWNW 4.1 5.1----29.91- 61.9 75.4----
2024-05-29 05:48 am NW 2.9 5.1----29.91- 61.9 75.4----
2024-05-29 05:42 am NW 4.1 5.1----29.91- 61.9 75.4----
2024-05-29 05:36 am NW 4.1 5.1----29.91- 61.7 75.4----
2024-05-29 05:30 amWNW 4.1 5.1----29.91- 61.9 75.4----
2024-05-29 05:24 amWNW 4.1 5.1----29.91- 61.9 75.4----
2024-05-29 05:18 amWNW 4.1 5.1----29.91- 62.2 75.4----
2024-05-29 05:12 amWNW 2.9 5.1----29.91- 62.4 75.4----
2024-05-29 05:06 amWNW 2.9 5.1----29.90- 62.6 75.4----
2024-05-29 05:00 amWNW 4.1 4.1----29.90+0.01 62.6 75.4----
2024-05-29 04:54 am NW 4.1 5.1----29.90- 62.4 75.4----
2024-05-29 04:48 amWNW 2.9 4.1----29.90- 62.6 75.4----
2024-05-29 04:42 am NW 2.9 4.1----29.90- 62.6 75.4----
2024-05-29 04:36 am NW 2.9 4.1----29.89- 62.8 75.4----
2024-05-29 04:30 am NW 2.9 5.1----29.89- 62.8 75.4----
2024-05-29 04:24 amWNW 4.1 5.1----29.89- 63.1 75.4----
2024-05-29 04:18 amWNW 4.1 5.1----29.89- 63.0 75.4----
2024-05-29 04:12 am W 4.1 5.1----29.89- 63.5 75.4----
2024-05-29 04:06 amWNW 4.1 4.1----29.89- 63.3 75.6----
2024-05-29 04:00 amWNW 2.9 4.1----29.89- 63.5 75.6----
2024-05-29 03:54 amWNW 2.9 4.1----29.89- 63.5 75.6----
2024-05-29 03:48 amWNW 4.1 5.1----29.89- 63.9 75.6----
2024-05-29 03:42 amWNW 2.9 5.1----29.89- 64.0 75.6----
2024-05-29 03:36 amWNW 4.1 6.0----29.89- 64.0 75.6----
2024-05-29 03:30 amWNW 5.1 7.0----29.89- 64.2 75.6----
2024-05-29 03:24 amWNW 4.1 5.1----29.89- 64.2 75.7----
2024-05-29 03:18 amWNW 2.9 4.1----29.89- 64.2 75.7----
2024-05-29 03:12 amWNW 2.9 5.1----29.89- 64.2 75.7----
2024-05-29 03:06 amWNW 4.1 4.1----29.89- 64.4 75.7----
2024-05-29 03:00 amWNW 4.1 5.1----29.89+0.02 64.4 75.9----
2024-05-29 02:54 amWNW 5.1 6.0----29.89- 64.8 75.9----
2024-05-29 02:48 amWNW 4.1 6.0----29.89- 65.1 75.9----
2024-05-29 02:42 am W 5.1 6.0----29.89- 65.1 75.9----
2024-05-29 02:36 am W 5.1 7.0----29.89- 65.1 75.9----
2024-05-29 02:30 am W 5.1 8.0----29.89- 65.3 75.9----
2024-05-29 02:24 am W 5.1 6.0----29.89- 65.5 75.9----
2024-05-29 02:18 am W 5.1 7.0----29.89- 65.5 75.9----
2024-05-29 02:12 am W 5.1 7.0----29.89- 65.5 75.9----
2024-05-29 02:06 am W 6.0 7.0----29.89- 65.7 75.9----
2024-05-29 02:00 amWNW 5.1 7.0----29.89+0.03 65.5 75.9----
2024-05-29 01:54 amWNW 6.0 7.0----29.89- 65.5 76.1----
2024-05-29 01:48 amWNW 6.0 8.0----29.88- 65.5 76.1----
2024-05-29 01:42 amWNW 6.0 7.0----29.88- 65.8 76.1----
2024-05-29 01:36 am W 6.0 7.0----29.89- 65.8 76.1----
2024-05-29 01:30 am W 5.1 7.0----29.88- 66.0 76.1----
2024-05-29 01:24 am W 5.1 8.0----29.88- 66.2 76.1----
2024-05-29 01:18 am W 6.0 7.0----29.88- 66.4 76.1----
2024-05-29 01:12 am W 5.1 7.0----29.88- 66.6 76.1----
2024-05-29 01:06 am W 4.1 8.0----29.88- 66.7 76.1----
2024-05-29 01:00 am--------- 66.9 76.3----
2024-05-29 12:54 am--------- 67.1 76.3----
2024-05-29 12:48 am W 5.1 6.0----29.87- 67.1-----
2024-05-29 12:42 amWNW 4.1 5.1----29.87- 66.9-----
2024-05-29 12:36 am W 4.1 5.1----29.87- 67.6-----
2024-05-29 12:30 am W 4.1 5.1----29.88- 67.5 76.3----
2024-05-29 12:24 am W 2.9 2.9----29.88- 67.5 76.3----
2024-05-29 12:18 am W 2.9 5.1----29.88- 67.8 76.3----
2024-05-29 12:12 am W 2.9 4.1----29.88- 67.8 76.3----
2024-05-29 12:06 am W 2.9 4.1----29.88- 68.2 76.3----
2024-05-29 12:00 am W 2.9 5.1----29.88+0.04 68.2 76.3----
2024-05-28 11:54 pm W 4.1 6.0----29.88- 68.2 76.3----
2024-05-28 11:48 pm W 5.1 8.0----29.88- 68.2 76.3----
2024-05-28 11:42 pmWNW 4.1 5.1----29.88- 68.2 76.5----
2024-05-28 11:36 pmWNW 4.1 6.0----29.87- 68.4 76.5----
2024-05-28 11:30 pmWNW 5.1 8.0----29.87- 68.7 76.5----
2024-05-28 11:24 pmWNW 5.1 6.0----29.87- 68.7 76.5----
2024-05-28 11:18 pmWNW 4.1 6.0----29.87- 68.7 76.5----
2024-05-28 11:12 pm NW 4.1 5.1----29.86- 68.9 76.5----
2024-05-28 11:06 pm NW 5.1 7.0----29.86- 69.3 76.5----
2024-05-28 11:00 pm NW 5.1 7.0----29.86+0.06 69.3 76.5----
2024-05-28 10:54 pm NW 5.1 7.0----29.86- 69.1 76.5----